Showing default

INTELSAT 36, 41747

Orbit data source: Space-Track

INTELSAT 36, 41747 is a payload satellite owned by Intelsat SA (US) (US) in GEO that was launched on Wed, 24 Aug 2016 UTC via an ARIANE 5ECA launch vehicle from the French Guiana (FRGUI). Payload-class satellites include a variety of spacecraft equipped with specific instruments for various scientific and technological missions. These include communications satellites like Starlink; space stations such as the ISS; scientific satellites like the Hubble; Earth observation satellites from companies like Planet Labs, Umbra, and HawkEye 360; GPS; miniature CubeSats for education and research; and military/defense satellites.

Not visible in the next 10 days
Identifier
41747, 2016-053A
Orbit
GEO
Country
Flag of UnknownUnknown / ITSO
Related business
Manufacturer
SS/Loral (MDA)
Mission
Operational Commercial Communications
Bus & Motor
LS-1300, R-4D
Mass
3,253 kg wet, ~1,800 kg dry
Launch date (UTC)
2016-08-24 (9 years ago)
Launch vehicle
ARIANE 5ECA
Launch site
French Guiana (FRGUI)
Object type
Payload
Rocket body
Debris
Shape & HBR
Box + 2 Pan, 12.3 m
Radar Cross Section
38.748 m², Large (>1 m²)

Expand to show TLE details & history
Last TLE update: 12 hours ago

TLE from 12 hours ago
0 INTELSAT 36
1 41747U 16053A   25261.89558685  .00000000  00000-0  00000-0 0  9998
2 41747   0.0176 146.4108 0001812 195.7254  46.8087  1.00268219 33220
Epoch: 2025-09-18T21:29Z
TLE epoch observation values (Epoch: 2025-09-18T21:29:38.703Z)
Latitude
-0.03547°
Longitude
68.49928°
Altitude
35,781.828 km
Speed
3.075 km/s
True Right ascension
01h 55m 50s
True Declination
0° 02' 08"
Sunlit
Object was in daylight at epoch
Visualization orbit readout
Latitude
Unknown
Longitude
Unknown
Altitude
Unknown
Speed
Unknown
Apparent Right ascension
Unknown
Apparent Declination
Unknown
Sunlit
N/A
Visualization observer readout
Local Sidereal Time
02:44:23
Azimuth
Unknown
Elevation
Unknown
Doppler factor
Unknown
Orbital elements
Apogee altitude
35,796.306 km
Perigee altitude
35,781.024 km
Semi-major axis
42,166.802 km
Eccentricity
0.00018
Inclination
0.0176°
RAAN
146.4108°
Arg. of periapsis
195.7254°
True anomaly
46.82384°
Mean anomaly
46.8087°
Eccentric anomaly
46.81627°
Mean motion
0.25066 °/min
Orbital period
1,436.2 mins
BSTAR
0
Loading maneuver chart data...
Computing Atmospheric mass density...
Loading historical data...
Loading historical data...
Loading historical data...
Loading historical data...
Loading historical data...
Loading historical data...
Loading historical data...

Documentation

Showing up to 5 results
|